This is the latest recevied weather packets stored in our database for station/object E27EKO-13. If no packets are shown the sender has not sent any weather packets the latest 10 day(s).
| Time | Temp. | Humidity | Pressure | Rain* | Wind** | Luminosity | Snow |
|---|---|---|---|---|---|---|---|
| 1777549926 | 33.33° C | 83% | 1007 hPa | - | - | 0 W/m² | - |
| 1777549616 | 33.33° C | 83% | 1007 hPa | - | - | 0 W/m² | - |
| 1777549282 | 33.89° C | 85% | 1007 hPa | - | - | 0 W/m² | - |
| 1777548960 | 33.89° C | 85% | 1006 hPa | - | - | 0 W/m² | - |
| 1777548638 | 33.89° C | 80% | 1006 hPa | - | - | 0 W/m² | - |
| 1777548316 | 33.89° C | 80% | 1006 hPa | - | - | 0 W/m² | - |
| 1777547994 | 33.89° C | 79% | 1006 hPa | - | - | 0 W/m² | - |
| 1777547672 | 33.89° C | 79% | 1006 hPa | - | - | 0 W/m² | - |
| 1777547349 | 33.33° C | 77% | 1006 hPa | - | - | 0 W/m² | - |
| 1777547027 | 33.33° C | 76% | 1006 hPa | - | - | 0 W/m² | - |
| 1777546705 | 34.44° C | 77% | 1006 hPa | - | - | 0 W/m² | - |
| 1777546383 | 34.44° C | 76% | 1006 hPa | - | - | 0 W/m² | - |
| 1777546060 | 34.44° C | 75% | 1006 hPa | - | - | 0 W/m² | - |
| 1777545738 | 33.89° C | 78% | 1005 hPa | - | - | 0 W/m² | - |
| 1777545416 | 33.89° C | 76% | 1005 hPa | - | - | 0 W/m² | - |
| 1777545094 | 35° C | 74% | 1005 hPa | - | - | 0 W/m² | - |
| 1777544772 | 35° C | 71% | 1005 hPa | - | - | 0 W/m² | - |
| 1777544450 | 36.11° C | 66% | 1006 hPa | - | - | 0 W/m² | - |
| 1777544128 | 37.22° C | 65% | 1006 hPa | - | - | 0 W/m² | - |
| 1777543806 | 37.78° C | 56% | 1006 hPa | - | - | 0 W/m² | - |
| 1777543518 | 36.67° C | 57% | 1006 hPa | - | - | 0 W/m² | - |
| 1777543196 | 36.11° C | 58% | 1006 hPa | - | - | 0 W/m² | - |
| 1777542874 | 36.67° C | 57% | 1006 hPa | - | - | 0 W/m² | - |
| 1777542552 | 36.67° C | 56% | 1007 hPa | - | - | 0 W/m² | - |
| 1777542230 | 36.67° C | 57% | 1007 hPa | - | - | 0 W/m² | - |
* Rain since midnight (hover to see other rain measurements)
** Current wind speed in m/s (hover to see current wind gust speed)